Regional Weather Roundup
Issued by NWS Boston, MA

Home | Current Version | Previous Version | Text Only | Print | Product List | Glossary On
Versions: 1 2 3 4 5 6 7 8 9 10 11 12 13 14 15 16 17 18 19 20 21 22 23 24 25 26 27 28 29 30 31 32 33 34 35 36 37 38 39 40 41 42 43 44 45 46 47 48 49 50
000
ASUS41 KBOX 252010
RWRBOX

REGIONAL WEATHER ROUNDUP
NATIONAL WEATHER SERVICE TAUNTON MA
400 PM EDT SAT APR 25 2015

NOTE:  "FAIR" INDICATES FEW OR NO CLOUDS BELOW 12,000 FEET WITH NO
SIGNIFICANT WEATHER AND/OR OBSTRUCTIONS TO VISIBILITY.  THE FOLLOWING
OBSERVATION LOCATIONS DO NOT REPORT PRESENT WEATHER...PROVINCETOWN...
SMITHFIELD...BLOCK ISLAND...KEENE...AND OXFORD.

MAZALL-252100-
EASTERN MASSACHUSETTS

CITY           SKY/WX    TMP DP  RH WIND       PRES   REMARKS
BOSTON         PTSUNNY   54  25  32 NW12G23   29.68S
BEVERLY        CLOUDY    54  25  32 NW15      29.67S
LAWRENCE       CLOUDY    54  26  34 NW10G20   29.68F
BEDFORD        PTSUNNY   54  25  32 NW10G18   29.67S
BLUE HILL        N/A     53  25  33 NW15G23   29.65S
NORWOOD        CLOUDY    56  24  29 NW10      29.67F
MARSHFIELD     PTSUNNY   48  30  49 SE7       29.71S
PLYMOUTH       CLOUDY    50  31  48 SE12      29.69S
TAUNTON        CLOUDY    58  25  28 N9        29.66F
NEW BEDFORD    PTSUNNY   56  25  30 NW9       29.66F
$$

MAZALL-252100-
CAPE COD AND THE ISLANDS

CITY           SKY/WX    TMP DP  RH WIND       PRES   REMARKS
FALMOUTH       CLOUDY    48  30  49 SW8G15    29.71S
HYANNIS        CLOUDY    49  31  49 S10       29.69S
CHATHAM        CLOUDY    48  35  60 SW12G17   29.71S
PROVINCETOWN   CLOUDY   N/A N/A N/A CALM      29.70S
NANTUCKET      PTSUNNY   47  32  56 W17       29.72S
MARTHAS VNYRD  PTSUNNY   49  31  49 SW16      29.70S
$$

MAZALL-252100-
CENTRAL AND WESTERN MASSACHUSETTS

CITY           SKY/WX    TMP DP  RH WIND       PRES   REMARKS
WORCESTER      PTSUNNY   52  24  33 W10G23    29.67F
FITCHBURG      PTSUNNY   55  26  32 N12       29.68F
ORANGE         MOSUNNY   54  24  31 NW16G23   29.69F
SPRINGFIELD    NOT AVBL
WESTFIELD      SUNNY     57  24  28 NW17G24   29.68F
NORTH ADAMS    SUNNY     53  26  35 VRB7      29.71F
PITTSFIELD     MOSUNNY   50  25  37 NW13G21   29.69F
$$

RIZALL-252100-
RHODE ISLAND

CITY           SKY/WX    TMP DP  RH WIND       PRES   REMARKS
PROVIDENCE     MOSUNNY   60  25  26 NW10      29.67F
NEWPORT        MOSUNNY   53  30  41 SW12G21   29.67F
BLOCK ISLAND   SUNNY     48  34  57 SW17      29.70F
SMITHFIELD     SUNNY     55  25  30 NW10G20   29.67F
WESTERLY       SUNNY     51  29  42 SW14G23   29.69F
$$

CTZALL-252100-
CONNECTICUT

CITY           SKY/WX    TMP DP  RH WIND       PRES   REMARKS
BRADLEY INTL   MOSUNNY   59  24  26 NW12G20   29.68F
HARTFORD       SUNNY     57  25  29 W12G21    29.69F
BRIDGEPORT     SUNNY     55  31  39 S13G23    29.71F
DANBURY        SUNNY     55  23  28 VRB5      29.72F
GROTON         SUNNY     50  32  50 SW20      29.68F
NEW HAVEN      MOSUNNY   53  32  44 SW12      29.70F
CHESTER        FAIR      55  23  28 NW15G22   29.69F
MERIDEN        MOSUNNY   58  23  26 NW10      29.69F
WILLIMANTIC    SUNNY     57  24  28 NW12G17   29.68F
OXFORD         SUNNY     54  27  35 N12G23    29.71F
$$

MEZ002-015-021-024-NHZ003-005-008-011-012-014-VTZ005-008-252100-
NORTHERN NEW ENGLAND

CITY           SKY/WX    TMP DP  RH WIND       PRES   REMARKS
PORTLAND ME    CLOUDY    52  27  38 NW16G24   29.67S
BANGOR ME      PTSUNNY   47  28  47 CALM      29.64S
CONCORD NH     CLOUDY    50  26  39 N15       29.69S
MANCHESTER NH  PTSUNNY   55  24  30 NW16G22   29.66F
NASHUA NH      PTSUNNY   55  25  31 NW14      29.68F
PORTSMOUTH NH  PTSUNNY   52  28  39 NW16G25   29.66S
JAFFREY NH     SUNNY     50  25  37 VRB7      29.68F
KEENE NH       PTSUNNY   52  25  35 NW8G18    29.70F
BURLINGTON VT  CLOUDY    47  27  45 VRB7      29.76F
MT. WASHINGTON SNOW      16  16 100 NW31        N/A  VSB 0   WCI  -5
$$

NYZ052-076-252100-
EASTERN NEW YORK

CITY           SKY/WX    TMP DP  RH WIND       PRES   REMARKS
ALBANY         PTSUNNY   57  27  31 NW10G23   29.72F
NEW YORK CITY  MOSUNNY   58  22  24 W10       29.72F
$$

ANZALL-252100-
MARINE OBSERVATIONS

STATION/POSITION TIME  TEMP    WIND        PRES    VSBY  WAVE
                       AIR SEA DIR/SP/G                  HT/PER
                 (UTC) (F)     (DEG/KT/KT) (MB)    (MI)  (FT/S)
BOSTON BUOY      1950   43 44  130/  8/ 10 1005.3F         1/ 8
BUZZARDS BAY     2000          230/ 18/ 20 1006.0F
NANTUCKET SOUND  1950   44 45  240/ 17/ 19 1006.1R         2/ 3
MASS BAY-STELLWA 1904   43 43  140/ 10/ 12   N/A    1 7/8  1/ 2
ISLE OF SHOALS   2000   48     340/ 21/ 22 1004.1R
S OF BLOCK IS    1908      40                N/A           3/ 5
$$

......................KEY.........................
  SKY/WX - SKY CONDITION/PRESENT WEATHER
  TMP    - TEMPERATURE IN FAHRENHEIT
  DWPT   - DEWPOINT IN FAHRENHEIT
  RH     - RELATIVE HUMIDITY IN PERCENT
  WIND   - DIRECTION AND SPEED IN MPH
  PRES   - MEAN SEA LEVEL PRESSURE IN INCHES OF HG
  WCI    - WIND CHILL INDEX
  VSB    - VISIBILITY IN MILES
  HX     - HEAT INDEX
  TC     - TEMPERATURE IN CELSIUS
  VRB    - VARIABLE WIND DIRECTION
  N/A    - NOT AVAILABLE


USA.gov is the U.S. government's official web portal to all federal, state and local government web resources and services.